COSMOS 2251 DEB, 35959

Orbit data source: Space-Track

COSMOS 2251 DEB, 35959 is space debris in LEO originally from a launch on Wed, 16 Jun 1993 UTC launched from the Plesetsk Missile And Space Complex (PKMTR). The debris from Iridium 33, an American commercial communications satellite, has been tracked extensively since its accidental collision with the defunct Russian satellite Cosmos 2251 in 2009. This event, occurring at high speed in low Earth orbit (LEO), generated thousands of pieces of space debris, significantly increasing the risk of further collisions. The Iridium 33 debris cloud has impacted space traffic management and orbital debris mitigation strategies, making it a subject of ongoing study in space situational awareness.

Loading next visibility...
Identifier
35959, 1993-036AUZ
Orbit
LEO
Country
Flag of CISCIS
Related business
Manufacturer
Unknown
Mission
Spacecraft
Bus & Motor
Unknown
Mass
Unknown
Launch date (UTC)
1993-06-16 (33 years ago)
Launch vehicle
Unknown
Launch site
Plesetsk Missile And Space Complex (PKMTR)
Object type
Payload
Rocket body
Debris
Shape & HBR
Unknown shape, 0.1 m
Radar Cross Section
Small (<0.1 m²)

Expand to show TLE details & history
Last TLE update: 2 days ago

TLE from 2 days ago
0 COSMOS 2251 DEB
1 35959U 93036AUZ 26035.53111339  .00000319  00000-0  12289-3 0  9992
2 35959  74.0302 213.5868 0023360 283.4782  76.3766 14.34180859856995
Epoch: 2026-02-04T12:44Z
TLE epoch observation values (Epoch: 2026-02-04T12:44:48.196Z)
Latitude
-0.00012°
Longitude
-112.31041°
Altitude
776.497 km
Speed
7.468 km/s
True Right ascension
14h 14m 20s
True Declination
0° 00' 00"
Sunlit
Object was in daylight at epoch
Visualization orbit readout
Latitude
Unknown
Longitude
Unknown
Altitude
Unknown
Speed
Unknown
Apparent Right ascension
Unknown
Apparent Declination
Unknown
Sunlit
N/A
Visualization observer readout
Local Sidereal Time
12:43:20
Azimuth
Unknown
Elevation
Unknown
Doppler factor
Unknown
Orbital elements
Apogee altitude
792.127 km
Perigee altitude
758.706 km
Semi-major axis
7,153.553 km
Eccentricity
0.00234
Inclination
74.0302°
RAAN
213.5868°
Arg. of periapsis
283.4782°
True anomaly
76.63693°
Mean anomaly
76.3766°
Eccentric anomaly
76.50675°
Mean motion
3.58724 °/min
Orbital period
100.36 mins
BSTAR
0.00012289

Documentation

Showing up to 5 results
|